Location: Ch�teau-Arnoux
(44.0814°N, 6.0027°E)
Time: 15:24:20
(UTC+00:00)

Cosmos 1697 Rocket - Pass Details

Date: 15 November 2019
Orbit: 833 x 842 km, 71.0° (Epoch: 07 December)

Event Time Altitude Azimuth Distance (km) Brightness Sun altitude
Exits shadow 04:30:32 34° 231° (SW) 1,346 3.4 -21.5°
Drops below altitude 10° 04:34:37 10° 189° (S) 2,436 5.1 -20.8°
Sets 04:37:11 0° 181° (S) 3,365 5.9 -20.3°
